Погода в Анцеловиче

Россия / Воронежская область     50°08′44″N   39°35′45″E
темп.,
°C
ветер,
м/с
пор.,
м/с
влажн.,
%
обл.,
%
осадки,
мм/ч
давл.,
гПа
погр.,
м
17 апреля, сб
сб1700:00+9св016952 0.0 101810
03:00+8юз3591100 2.1 1018257
06:00+8ююз0191100 0.8 1018109
09:00+10юз2270100 1.2 1018764
12:00+13зюз555481 1.1 10181566
15:00+14зюз463792 1.2 10182338
18:00+12зюз67535 0.0 10181047
21:00+7зюз38695 0.0 1020198
18 апреля, вс
вс1800:00+8юз3662100 0.0 1020225
03:00+8ююз2363100 0.0 101990
06:00+7юз367594 0.1 1020243
09:00+10юз456289 0.1 1020739
12:00+12з3547100 0.0 10191832
15:00+12ю2246100 0.0 10191406
18:00+12юв2353100 0.0 1019286
21:00+10в2459100 0.0 1019102
19 апреля, пн
пн1900:00+8в226368 0.0 101821
03:00+8вюв236584 0.0 101836
06:00+7всв11725 0.0 101813
09:00+13вюв355354 0.0 1017707
12:00+15вюв3442100 0.1 10162186
15:00+15вюв4442100 0.1 10161845
18:00+14вюв355398 0.0 1016205
21:00+11всв2259100 0.0 101626
20 апреля, вт
вт2000:00+9в51280100 0.0 1015312
03:00+8всв51093100 0.1 1015340
06:00+7всв61290100 0.0 1013456
09:00+10всв91382100 0.1 1010844
12:00+9в101894100 4.8 1006812
15:00+10вюв122292100 6.6 10021184
18:00+14юв11188964 3.9 998822
21:00+12ююв9168444 5.8 1001779
21 апреля, ср
ср2100:00+10ююв91581100 0.1 10031074
03:00+9ююв111785100 0.3 10021239
06:00+9ю91589100 0.4 1003873
09:00+7юз81480100 1.2 10091332
12:00+8юз8138195 0.1 10131183
15:00+11зюз7116249 0.2 10151395
18:00+11зюз596583 0.0 1018689
21:00+9юз267883 0.0 1020260